User: anonymous   Login
Location: New Town
(33.2710°N, 90.7534°W)
Time: 18:58:44
(UTC+00:00)
Language:

Envisat - Orbit

View from above orbital plane
View from above orbital plane
View from above satellite
View from above satellite

Ground track
Ground track

The orbit data is extracted from the following two-line orbital elements,

1 27386U 02009A   21126.97609916  .00000029  00000-0  22965-4 0  9995
2 27386  98.1481 123.1535 0001331  86.3707 327.6812 14.38024342  5115
Epoch (UTC): 06 May 2021 23:25:34
Eccentricity: 0.0001331
inclination: 98.1481°
perigee height: 764 km
apogee height: 766 km
right ascension of ascending node: 123.1535°
argument of perigee: 86.3707°
revolutions per day: 14.38024342
mean anomaly at epoch: 327.6812°
orbit number at epoch: 511

The dashed part of the orbit path shows where the satellite is in the earth's shadow,  

DLR